FW1194 Weather Reports


time (UTC)temp
F
wind
direction
speed
knots
gust
knots
rain 1hr
in
rain 24hr
in
rain mn
in
humidity
%
barometer
mb
20260507185216 60 0 11.3 17.4 0.00 0.00 0.00 43 1010.0
20260507184216 60 0 13.9 22.6 0.00 0.00 0.00 43 1010.1
20260507183216 59 225 15.6 22.6 0.00 0.00 0.00 40 1010.2
20260507182216 59 0 9.6 14.8 0.00 0.00 0.00 41 1010.1
20260507181215 58 0 7.0 10.4 0.00 0.00 0.00 41 1010.5
20260507180216 59 0 9.6 17.4 0.00 0.00 0.00 37 1010.6
20260507175216 59 0 10.4 13.9 0.00 0.00 0.00 39 1010.8
20260507174216 59 0 9.6 14.8 0.00 0.00 0.00 38 1011.1
20260507173216 59 0 8.7 12.2 0.00 0.00 0.00 38 1011.3
20260507172216 59 0 13.0 20.0 0.00 0.00 0.00 39 1011.4
20260507171216 58 0 7.0 11.3 0.00 0.00 0.00 38 1011.7
20260507170216 59 0 9.6 19.1 0.00 0.00 0.00 39 1012.0
20260507165216 58 180 8.7 13.9 0.00 0.00 0.00 39 1012.0
20260507164238 57 0 7.8 12.2 0.00 0.00 0.00 37 1012.1
20260507163238 57 225 7.0 14.8 0.00 0.00 0.00 37 1012.3
20260507162219 57 225 4.3 7.0 0.00 0.00 0.00 40 1012.5
20260507161238 56 203 6.1 7.8 0.00 0.00 0.00 40 1012.7
20260507160217 55 225 3.5 5.2 0.00 0.00 0.00 41 1012.8
20260507155238 54 203 5.2 7.8 0.00 0.00 0.00 41 1012.9
20260507154238 55 158 4.3 8.7 0.00 0.00 0.00 39 1013.2
20260507153217 55 180 1.7 4.3 0.00 0.00 0.00 40 1013.1
20260507152218 54 0 6.1 8.7 0.00 0.00 0.00 39 1013.4
20260507151218 53 248 2.6 3.5 0.00 0.00 0.00 43 1013.5
20260507150218 53 293 3.5 5.2 0.00 0.00 0.00 42 1013.8
20260507145217 52 225 3.5 5.2 0.00 0.00 0.00 44 1013.8
20260507144217 51 0 7.8 9.6 0.00 0.00 0.00 45 1014.0
20260507143258 51 248 5.2 7.8 0.00 0.00 0.00 47 1014.2
20260507142217 51 225 6.1 9.6 0.00 0.00 0.00 48 1014.3
20260507141217 49 203 3.5 4.3 0.00 0.00 0.00 52 1014.3
20260507140217 48 203 4.3 7.8 0.00 0.00 0.00 54 1014.4
20260507135218 46 203 3.5 5.2 0.00 0.00 0.00 57 1014.3
20260507134217 45 225 2.6 3.5 0.00 0.00 0.00 60 1014.2
20260507133218 44 225 3.5 5.2 0.00 0.00 0.00 64 1014.5
20260507132218 43 203 1.7 1.7 0.00 0.00 0.00 66 1014.7
20260507131217 43 225 1.7 2.6 0.00 0.00 0.00 68 1014.7
20260507130217 42 203 2.6 3.5 0.00 0.00 0.00 68 1014.7
20260507125217 42 248 2.6 5.2 0.00 0.00 0.00 68 1014.6
20260507124217 41 225 1.7 2.6 0.00 0.00 0.00 71 1014.6
20260507123217 40 203 2.6 3.5 0.00 0.00 0.00 76 1014.5
20260507122218 38 225 1.7 2.6 0.00 0.00 0.00 79 1014.3
20260507121217 37 270 0.9 2.6 0.00 0.00 0.00 81 1014.2
20260507120217 36 248 1.7 2.6 0.00 0.00 0.00 82 1014.2
20260507115237 34 248 0.9 1.7 0.00 0.00 0.00 82 1014.1
20260507114217 33 0.0 0.0 0.00 0.00 0.00 82 1014.1
20260507113217 33 0.0 0.9 0.00 0.00 0.00 82 1014.0
20260507112217 32 225 0.9 1.7 0.00 0.00 0.00 81 1013.8
20260507111217 32 225 0.9 1.7 0.00 0.00 0.00 81 1013.9
20260507110217 32 225 0.9 0.9 0.00 0.00 0.00 81 1013.8
20260507105258 32 225 0.9 1.7 0.00 0.00 0.00 80 1013.8
20260507104217 32 225 0.9 1.7 0.00 0.00 0.00 80 1013.8
20260507103217 32 225 0.9 1.7 0.00 0.00 0.00 80 1013.8
20260507102217 32 225 0.9 1.7 0.00 0.00 0.00 79 1013.8
20260507101217 32 225 0.9 1.7 0.00 0.00 0.00 79 1013.9
20260507100217 32 0.0 0.9 0.00 0.00 0.00 79 1013.8
20260507095217 32 225 0.9 0.9 0.00 0.00 0.00 78 1014.0
20260507094217 32 225 0.9 0.9 0.00 0.00 0.00 78 1014.0
20260507093237 32 203 0.9 1.7 0.00 0.00 0.00 76 1013.9
20260507092218 32 203 0.9 1.7 0.00 0.00 0.00 75 1013.9
20260507091237 32 0.0 0.9 0.00 0.00 0.00 74 1013.9
20260507090338 32 0.0 0.9 0.00 0.00 0.00 74 1013.9
20260507085217 32 0.0 0.0 0.00 0.00 0.00 73 1013.9
20260507084237 33 0.0 0.0 0.00 0.00 0.00 73 1014.0
20260507083216 33 0.0 0.0 0.00 0.00 0.00 72 1013.9
20260507082216 33 0.0 0.9 0.00 0.00 0.00 72 1013.9
20260507081217 33 0.0 0.0 0.00 0.00 0.00 71 1013.9
20260507080217 34 0.0 0.9 0.00 0.00 0.00 71 1014.0
20260507075217 34 203 0.9 1.7 0.00 0.00 0.00 71 1014.1
20260507074217 34 0.0 0.0 0.00 0.00 0.00 70 1014.0
20260507073217 35 0.0 0.0 0.00 0.00 0.00 70 1014.2
20260507072217 35 203 0.9 1.7 0.00 0.00 0.00 70 1014.2
20260507071216 35 0.0 0.0 0.00 0.00 0.00 70 1014.3
20260507070216 36 0.0 0.9 0.00 0.00 0.00 69 1014.3
20260507065217 36 203 0.9 1.7 0.00 0.00 0.00 68 1014.3
20260507064216 36 0.0 0.0 0.00 0.00 0.00 68 1014.3
20260507063237 36 203 0.9 1.7 0.00 0.00 0.00 67 1014.4
20260507062237 36 203 0.9 0.9 0.00 0.00 0.00 66 1014.4
20260507061217 37 203 1.7 1.7 0.00 0.00 0.00 66 1014.5
20260507060216 37 203 0.9 1.7 0.00 0.00 0.00 64 1014.6
20260507055216 37 203 0.9 0.9 0.00 0.00 0.00 63 1014.6
20260507054217 38 0.0 0.0 0.00 0.00 0.00 62 1014.4
20260507053237 38 0.0 0.0 0.00 0.00 0.00 62 1014.5
20260507052217 39 293 0.9 1.7 0.00 0.00 0.00 60 1014.5
20260507051216 39 293 0.9 0.9 0.00 0.00 0.00 59 1014.5
20260507050217 40 0.0 0.9 0.00 0.00 0.00 59 1014.5
20260507045217 40 0.0 0.0 0.00 0.00 0.00 58 1014.5
20260507044217 41 293 0.9 0.9 0.00 0.00 0.00 56 1014.5
20260507043217 42 0.0 0.9 0.00 0.00 0.00 56 1014.6
20260507042217 42 0.0 0.9 0.00 0.00 0.00 55 1014.5
20260507041217 42 270 1.7 2.6 0.00 0.00 0.00 54 1014.5
20260507040258 43 315 0.9 0.9 0.00 0.00 0.00 54 1014.5
20260507035217 43 293 1.7 2.6 0.00 0.00 0.00 53 1014.5
20260507034237 43 293 0.9 1.7 0.00 0.00 0.00 52 1014.5
20260507033217 44 315 0.9 1.7 0.00 0.00 0.00 51 1014.6
20260507032217 44 315 1.7 2.6 0.00 0.00 0.00 50 1014.7
20260507031217 45 293 1.7 3.5 0.00 0.00 0.00 49 1014.6
20260507030217 45 293 3.5 6.1 0.00 0.00 0.00 48 1014.5
20260507025216 45 315 2.6 3.5 0.00 0.00 0.00 48 1014.4
20260507024217 45 270 5.2 7.0 0.00 0.00 0.00 47 1014.5
20260507023217 45 293 3.5 7.0 0.00 0.00 0.00 47 1014.3
20260507022237 46 293 3.5 6.1 0.00 0.00 0.00 47 1014.2
20260507021237 46 293 4.3 6.1 0.00 0.00 0.00 46 1014.0
20260507020217 46 293 6.1 9.6 0.00 0.00 0.00 46 1013.8
20260507015217 47 293 4.3 7.0 0.00 0.00 0.00 45 1013.8
20260507014217 47 293 3.5 4.3 0.00 0.00 0.00 44 1013.7
20260507013237 47 315 4.3 7.0 0.00 0.00 0.00 44 1013.7
20260507012237 48 270 4.3 7.8 0.00 0.00 0.00 42 1013.7
20260507011217 48 293 3.5 6.1 0.00 0.00 0.00 42 1013.5
20260507010217 48 293 3.5 6.1 0.00 0.00 0.00 41 1013.4
20260507005216 49 270 7.0 9.6 0.00 0.00 0.00 41 1013.4
20260507004217 50 270 6.1 7.8 0.00 0.00 0.00 40 1013.3
20260507003216 50 270 8.7 13.0 0.00 0.00 0.00 40 1013.2
20260507002217 51 293 7.8 10.4 0.00 0.00 0.00 40 1013.2
20260507001217 51 270 7.8 12.2 0.00 0.00 0.00 39 1013.1
20260507000216 51 270 6.1 10.4 0.00 0.00 0.00 39 1012.9
20260506235217 51 270 13.0 17.4 0.00 0.00 0.00 40 1012.8
20260506234217 52 293 11.3 15.6 0.00 0.00 0.00 39 1012.8
20260506233216 52 270 8.7 13.9 0.00 0.00 0.00 39 1012.6
20260506232237 53 293 10.4 18.2 0.00 0.00 0.00 38 1012.5
20260506231217 53 270 8.7 14.8 0.00 0.00 0.00 38 1012.5
20260506230257 53 270 11.3 16.5 0.00 0.00 0.00 38 1012.5
20260506225216 54 270 12.2 16.5 0.00 0.00 0.00 37 1012.2
20260506224216 54 270 13.0 16.5 0.00 0.00 0.00 38 1012.3
20260506223237 54 248 7.8 10.4 0.00 0.00 0.00 39 1012.2
20260506222216 54 270 8.7 13.0 0.00 0.00 0.00 38 1012.1
20260506221216 54 248 7.8 13.0 0.00 0.00 0.00 38 1012.2
20260506220217 54 270 7.0 8.7 0.00 0.00 0.00 37 1012.1
20260506215216 55 270 10.4 15.6 0.00 0.00 0.00 38 1011.9
20260506214217 54 248 10.4 15.6 0.00 0.00 0.00 38 1011.9
20260506213216 56 248 13.9 20.9 0.00 0.00 0.00 37 1012.0
20260506212217 56 293 11.3 13.9 0.00 0.00 0.00 37 1011.9
20260506211216 56 248 12.2 16.5 0.00 0.00 0.00 36 1011.8
20260506210216 56 0 10.4 15.6 0.00 0.00 0.00 35 1011.8
20260506205216 56 248 7.0 13.9 0.00 0.00 0.00 38 1011.8
20260506204237 57 270 7.8 11.3 0.00 0.00 0.00 36 1011.9
20260506203216 56 248 7.0 13.9 0.00 0.00 0.00 37 1011.9
20260506202216 57 248 8.7 14.8 0.00 0.00 0.00 34 1012.0
20260506201236 59 270 11.3 15.6 0.00 0.00 0.00 32 1012.1
20260506200216 57 248 10.4 13.9 0.00 0.00 0.00 33 1012.3
20260506195236 56 203 9.6 13.9 0.00 0.00 0.00 34 1012.3
20260506194256 56 248 11.3 17.4 0.00 0.00 0.00 32 1012.4
20260506193216 57 248 7.8 11.3 0.00 0.00 0.00 32 1012.5
20260506192216 57 270 8.7 13.9 0.00 0.00 0.00 33 1012.6
20260506191216 57 225 9.6 13.9 0.00 0.00 0.00 34 1012.6
20260506190216 57 270 10.4 16.5 0.00 0.00 0.00 36 1012.6